TimeCST,TemperatureF,Dew PointF,Humidity,Sea Level PressureIn,VisibilityMPH,Wind Direction,Wind SpeedMPH,Gust SpeedMPH,PrecipitationIn,Events,Conditions,WindDirDegrees,DateUTC
12:53 AM,32.0,28.0,85,29.65,4.0,North,21.9,-,N/A,,Overcast,350,2012-03-07 06:53:00
1:09 AM,32.0,26.6,80,29.63,5.0,North,20.7,27.6,N/A,,Haze,360,2012-03-07 07:09:00
1:34 AM,32.0,26.6,80,29.64,5.0,North,15.0,-,N/A,,Haze,350,2012-03-07 07:34:00
1:53 AM,32.0,27.0,82,29.67,4.0,North,13.8,-,N/A,,Haze,350,2012-03-07 07:53:00
2:35 AM,30.2,26.6,86,29.65,6.0,North,13.8,-,N/A,,Haze,350,2012-03-07 08:35:00
2:53 AM,30.9,26.1,82,29.70,7.0,NNW,16.1,-,N/A,,Overcast,330,2012-03-07 08:53:00
3:53 AM,30.0,25.0,82,29.69,9.0,NNW,19.6,-,N/A,,Overcast,340,2012-03-07 09:53:00
4:53 AM,30.0,24.1,79,29.73,9.0,North,19.6,26.5,N/A,,Overcast,350,2012-03-07 10:53:00
5:53 AM,28.9,24.1,82,29.73,10.0,North,18.4,-,N/A,,Overcast,350,2012-03-07 11:53:00
6:53 AM,27.0,21.9,81,29.77,10.0,North,21.9,-,N/A,,Overcast,350,2012-03-07 12:53:00
7:03 AM,26.6,21.2,80,29.74,10.0,North,25.3,31.1,N/A,,Overcast,350,2012-03-07 13:03:00
7:14 AM,26.6,19.4,74,29.74,10.0,North,26.5,-,N/A,,Overcast,350,2012-03-07 13:14:00
7:53 AM,25.0,19.0,78,29.82,10.0,NNW,24.2,29.9,N/A,,Overcast,340,2012-03-07 13:53:00
8:53 AM,23.0,17.1,78,29.84,10.0,NNW,23.0,-,N/A,,Overcast,340,2012-03-07 14:53:00
9:53 AM,23.0,16.0,74,29.85,10.0,NNW,25.3,-,N/A,,Overcast,340,2012-03-07 15:53:00
10:53 AM,21.9,15.1,75,29.90,10.0,NNW,23.0,-,N/A,,Overcast,340,2012-03-07 16:53:00
11:36 AM,21.2,14.0,74,29.86,10.0,North,20.7,-,N/A,,Overcast,350,2012-03-07 17:36:00
11:53 AM,21.9,14.0,72,29.90,10.0,NNW,19.6,-,N/A,,Overcast,330,2012-03-07 17:53:00
12:04 PM,21.2,14.0,74,29.86,10.0,NNW,21.9,-,N/A,,Overcast,330,2012-03-07 18:04:00
12:49 PM,21.2,15.8,80,29.87,10.0,NNW,21.9,27.6,N/A,,Overcast,340,2012-03-07 18:49:00
12:53 PM,21.9,15.1,75,29.91,10.0,NNW,19.6,27.6,N/A,,Overcast,340,2012-03-07 18:53:00
1:53 PM,23.0,16.0,74,29.91,10.0,NNW,20.7,-,N/A,,Overcast,330,2012-03-07 19:53:00
2:37 PM,24.8,15.8,69,29.87,10.0,NNW,20.7,-,N/A,,Overcast,330,2012-03-07 20:37:00
2:53 PM,25.0,16.0,69,29.93,10.0,NW,19.6,-,N/A,,Overcast,320,2012-03-07 20:53:00
3:53 PM,25.0,17.1,72,29.95,10.0,NNW,19.6,-,N/A,,Mostly Cloudy,340,2012-03-07 21:53:00
4:22 PM,24.8,15.8,69,29.92,10.0,NNW,20.7,-,N/A,,Scattered Clouds,330,2012-03-07 22:22:00
4:53 PM,25.0,17.1,72,29.97,10.0,NNW,18.4,-,N/A,,Clear,340,2012-03-07 22:53:00
5:53 PM,23.0,15.1,72,29.99,10.0,NNW,13.8,-,N/A,,Clear,340,2012-03-07 23:53:00
6:53 PM,21.0,14.0,74,30.04,10.0,North,3.5,-,N/A,,Clear,350,2012-03-08 00:53:00
7:36 PM,19.4,14.0,80,30.00,10.0,NNW,5.8,-,N/A,,Mostly Cloudy,330,2012-03-08 01:36:00
7:53 PM,18.0,12.9,81,30.06,10.0,Calm,Calm,-,N/A,,Overcast,0,2012-03-08 01:53:00
8:53 PM,19.0,12.9,77,30.09,10.0,West,3.5,-,N/A,,Mostly Cloudy,260,2012-03-08 02:53:00
9:20 PM,17.6,12.2,79,30.04,10.0,West,5.8,-,N/A,,Scattered Clouds,260,2012-03-08 03:20:00
9:53 PM,19.0,12.9,77,30.10,10.0,WSW,4.6,-,N/A,,Clear,250,2012-03-08 03:53:00
10:53 PM,19.0,12.9,77,30.10,10.0,WSW,6.9,-,N/A,,Partly Cloudy,250,2012-03-08 04:53:00
11:53 PM,18.0,12.0,78,30.09,10.0,SW,5.8,-,N/A,,Mostly Cloudy,230,2012-03-08 05:53:00